This is the latest recevied weather packets stored in our database for station/object AD0YN. If no packets are shown the sender has not sent any weather packets the latest 10 day(s).
| Time | Temp. | Humidity | Pressure | Rain* | Wind** | Luminosity | Snow |
|---|---|---|---|---|---|---|---|
| 1777613890 | 6.67° C | 72% | 1018.7 hPa | 0 mm | - | 0 W/m² | - |
| 1777613588 | 6.67° C | 72% | 1018.5 hPa | 0 mm | - | 0 W/m² | - |
| 1777613284 | 6.67° C | 72% | 1018.6 hPa | 0 mm | - | 0 W/m² | - |
| 1777612981 | 7.22° C | 72% | 1018.5 hPa | 0 mm | - | 0 W/m² | - |
| 1777612676 | 7.22° C | 72% | 1018.7 hPa | 0 mm | - | 0 W/m² | - |
| 1777612373 | 7.22° C | 71% | 1018.4 hPa | 0 mm | - | 0 W/m² | - |
| 1777612068 | 7.22° C | 70% | 1018.4 hPa | 0 mm | - | 0 W/m² | - |
| 1777611763 | 7.78° C | 70% | 1018.4 hPa | 0 mm | - | 0 W/m² | - |
| 1777611461 | 7.78° C | 69% | 1018.3 hPa | 0 mm | - | 0 W/m² | - |
| 1777611158 | 7.78° C | 69% | 1018.5 hPa | 0 mm | - | 0 W/m² | - |
| 1777610858 | 7.78° C | 69% | 1018.3 hPa | 0 mm | - | 0 W/m² | - |
| 1777610554 | 7.78° C | 69% | 1018.4 hPa | 0 mm | - | 0 W/m² | - |
| 1777610248 | 7.78° C | 69% | 1018.4 hPa | 0 mm | - | 0 W/m² | - |
| 1777609946 | 7.78° C | 69% | 1018.3 hPa | 0 mm | - | 0 W/m² | - |
| 1777609642 | 7.78° C | 70% | 1018.4 hPa | 0 mm | - | 0 W/m² | - |
| 1777609339 | 7.78° C | 72% | 1018.2 hPa | 0 mm | - | 0 W/m² | - |
| 1777609037 | 7.22° C | 74% | 1018.3 hPa | 0 mm | - | 0 W/m² | - |
| 1777608734 | 6.67° C | 77% | 1018.2 hPa | 0 mm | - | 0 W/m² | - |
| 1777608430 | 6.67° C | 77% | 1018.2 hPa | 0 mm | - | 0 W/m² | - |
| 1777608128 | 7.22° C | 76% | 1018 hPa | 0 mm | - | 0 W/m² | - |
| 1777607825 | 7.22° C | 74% | 1018.1 hPa | 0 mm | - | 0 W/m² | - |
| 1777607521 | 7.78° C | 72% | 1018 hPa | 0 mm | - | 0 W/m² | - |
| 1777607217 | 7.78° C | 70% | 1018 hPa | 0 mm | - | 0 W/m² | - |
| 1777606914 | 8.33° C | 67% | 1018.2 hPa | 0 mm | - | 0 W/m² | - |
| 1777606609 | 8.33° C | 66% | 1018.3 hPa | 0 mm | - | 0 W/m² | - |
* Rain latest hour (hover to see other rain measurements)
** Current wind speed in m/s (hover to see current wind gust speed)